Location: Domont
(49.0278°N, 2.3264°E)
Time: 02:20:51
(UTC+00:00)

ZACube-1 - Pass Details

Date: 02 July 2022
Orbit: 582 x 661 km, 97.6° (Epoch: 08 August)

Event Time Altitude Azimuth Distance (km) Brightness Sun altitude
Rises 02:28:46 0° 30° (NNE) 2,954 ? -10.2°
Reaches altitude 10° 02:31:59 10° 55° (NE) 2,054 ? -9.9°
Maximum altitude 02:34:25 14° 88° (E) 1,783 ? -9.6°
Drops below altitude 10° 02:36:52 10° 121° (ESE) 2,064 ? -9.4°
Sets 02:40:05 0° 146° (SE) 2,978 ? -9.1°
